Zapata, TX

2:55 AM CDT on August 31, 2016 (GMT -0500)
Zapata

Weather History for KAPY - March, 2013

Change the Weather History Date:

Thursday, March 28, 2013

  Actual Average (KLRD) Record (KLRD)
Temperature  
Mean Temperature 70 °F 72 °F  
Max Temperature 76 °F 83 °F 104 °F (1924)
Min Temperature 65 °F 60 °F 33 °F (1930)
Degree Days  
Heating Degree Days 0 1  
Month to date heating degree days 66  
Since 1 July heating degree days 910  
Cooling Degree Days 6 8  
Month to date cooling degree days 149  
Year to date cooling degree days 234  
Growing Degree Days 20 (Base 50)    
Moisture  
Dew Point 56 °F    
Average Humidity 62    
Maximum Humidity 72    
Minimum Humidity 48    
Precipitation  
Precipitation 0.00 in 0.03 in 0.38 in (1935)
Month to date precipitation 1.05  
Year to date precipitation 2.89  
Sea Level Pressure  
Sea Level Pressure 30.11 in    
Wind  
Wind Speed 11 mph (SE)    
Max Wind Speed 16 mph    
Max Gust Speed 24 mph    
Visibility 10 miles    
Events      
T = Trace of Precipitation, MM = Missing Value Source: NWS Daily Summary

Daily Weather History Graph

Daily Weather History Graph

Search for Another Location

Airport or City:

Trip Planner

Search our weather history database for the weather conditions in past years. The results will help you decide how hot, cold, wet, or windy it might be!

Date:

Astronomy

Mar. 28, 2013 Rise Set
Actual Time 7:31 AM CDT 7:52 PM CDT
Civil Twilight 7:08 AM CDT 8:15 PM CDT
Nautical Twilight 6:41 AM CDT 8:42 PM CDT
Astronomical Twilight 6:13 AM CDT 9:10 PM CDT
Moon 9:32 PM CDT (3/28) 8:11 AM CDT (3/28)
Length of Visible Light 13h 07m
Length of Day
12h 20m
Full, 98% of the Moon is Illuminated
Mar 28
Full
Apr 2
Last Quarter
Apr 10
New
Apr 18
First Quarter
Apr 25
Full

Hourly Weather History & Observations

Time (CDT) Temp. Dew Point Humidity Pressure Visibility Wind Dir Wind Speed Gust Speed Precip Events Conditions
12:15 AM 66.0 °F 52.3 °F 61% 30.16 in 10.0 mi SE 15.0 mph 20.7 mph N/A   Overcast
12:35 AM 65.8 °F 52.7 °F 62% 30.16 in 10.0 mi SE 13.8 mph 19.6 mph N/A   Overcast
12:55 AM 65.8 °F 52.9 °F 63% 30.15 in 10.0 mi SE 10.4 mph 18.4 mph N/A   Overcast
1:15 AM 65.5 °F 53.6 °F 65% 30.15 in 10.0 mi SE 13.8 mph 20.7 mph N/A   Overcast
1:35 AM 65.5 °F 53.6 °F 65% 30.15 in 10.0 mi SE 8.1 mph 16.1 mph N/A   Overcast
1:55 AM 65.5 °F 53.8 °F 66% 30.15 in 10.0 mi SE 10.4 mph - N/A   Overcast
2:35 AM 65.3 °F 54.0 °F 67% 30.14 in 10.0 mi SE 9.2 mph 19.6 mph N/A   Overcast
2:55 AM 65.5 °F 54.5 °F 68% 30.13 in 10.0 mi SE 9.2 mph 17.3 mph N/A   Overcast
3:15 AM 65.3 °F 54.1 °F 67% 30.12 in 10.0 mi SE 9.2 mph - N/A   Overcast
3:35 AM 65.3 °F 54.5 °F 68% 30.11 in 10.0 mi SE 10.4 mph 16.1 mph N/A   Overcast
3:55 AM 65.3 °F 54.5 °F 68% 30.10 in 10.0 mi SE 12.7 mph 17.3 mph N/A   Overcast
4:15 AM 65.5 °F 55.0 °F 69% 30.10 in 10.0 mi SE 11.5 mph - N/A   Overcast
4:35 AM 65.3 °F 55.0 °F 69% 30.09 in 10.0 mi SE 10.4 mph - N/A   Overcast
4:55 AM 65.5 °F 55.4 °F 70% 30.09 in 10.0 mi SE 10.4 mph 17.3 mph N/A   Overcast
5:15 AM 65.3 °F 55.4 °F 70% 30.09 in 10.0 mi SE 11.5 mph 17.3 mph N/A   Overcast
5:35 AM 65.3 °F 55.4 °F 70% 30.09 in 10.0 mi SE 9.2 mph 17.3 mph N/A   Overcast
5:55 AM 65.3 °F 55.6 °F 71% 30.09 in 10.0 mi SE 10.4 mph 16.1 mph N/A   Overcast
6:15 AM 65.3 °F 55.8 °F 71% 30.09 in 10.0 mi SE 9.2 mph - N/A   Overcast
6:35 AM 65.3 °F 55.8 °F 71% 30.09 in 10.0 mi SE 9.2 mph - N/A   Overcast
6:55 AM 65.5 °F 55.9 °F 71% 30.09 in 10.0 mi SE 8.1 mph - N/A   Overcast
7:15 AM 65.5 °F 56.1 °F 72% 30.10 in 10.0 mi SE 12.7 mph - N/A   Overcast
7:35 AM 65.7 °F 56.3 °F 72% 30.10 in 10.0 mi SE 10.4 mph - N/A   Overcast
7:55 AM 65.8 °F 56.3 °F 71% 30.10 in 10.0 mi SE 9.2 mph 16.1 mph N/A   Overcast
8:15 AM 65.8 °F 56.5 °F 72% 30.11 in 10.0 mi SE 10.4 mph - N/A   Overcast
8:35 AM 66.2 °F 56.5 °F 71% 30.12 in 10.0 mi SE 8.1 mph 18.4 mph N/A   Overcast
8:55 AM 66.2 °F 56.3 °F 70% 30.12 in 10.0 mi SE 10.4 mph - N/A   Overcast
9:15 AM 66.4 °F 56.3 °F 70% 30.13 in 10.0 mi SE 8.1 mph - N/A   Overcast
9:35 AM 66.2 °F 56.3 °F 70% 30.14 in 10.0 mi ESE 9.2 mph - N/A   Overcast
9:55 AM 66.2 °F 56.5 °F 71% 30.14 in 10.0 mi SE 9.2 mph - N/A   Overcast
10:15 AM 66.4 °F 56.5 °F 70% 30.15 in 10.0 mi ESE 11.5 mph - N/A   Overcast
10:35 AM 66.7 °F 56.5 °F 70% 30.15 in 10.0 mi SE 11.5 mph - N/A   Overcast
10:55 AM 67.6 °F 56.8 °F 68% 30.15 in 10.0 mi SE 10.4 mph - N/A   Overcast
11:15 AM 68.4 °F 57.2 °F 67% 30.15 in 10.0 mi SE 12.7 mph - N/A   Overcast
11:35 AM 69.1 °F 57.2 °F 66% 30.15 in 10.0 mi SE 11.5 mph 19.6 mph N/A   Overcast
11:55 AM 69.8 °F 57.2 °F 64% 30.15 in 10.0 mi SE 12.7 mph 19.6 mph N/A   Overcast
12:15 PM 70.2 °F 57.2 °F 63% 30.15 in 10.0 mi SE 10.4 mph 20.7 mph N/A   Overcast
12:35 PM 70.0 °F 57.4 °F 64% 30.15 in 10.0 mi SE 10.4 mph 21.9 mph N/A   Overcast
12:55 PM 70.0 °F 58.1 °F 66% 30.15 in 10.0 mi SSE 11.5 mph 16.1 mph N/A   Overcast
1:15 PM 70.9 °F 57.4 °F 62% 30.15 in 10.0 mi SE 11.5 mph 19.6 mph N/A   Overcast
1:35 PM 70.9 °F 57.4 °F 62% 30.14 in 10.0 mi SSE 5.8 mph - N/A   Overcast
1:55 PM 72.7 °F 57.2 °F 58% 30.13 in 10.0 mi SE 9.2 mph - N/A   Overcast
2:15 PM 72.3 °F 57.4 °F 59% 30.12 in 10.0 mi ESE 10.4 mph - N/A   Overcast
2:35 PM 71.8 °F 58.1 °F 62% 30.11 in 10.0 mi ESE 10.4 mph 17.3 mph N/A   Overcast
2:55 PM 73.4 °F 57.7 °F 58% 30.10 in 10.0 mi SE 12.7 mph 18.4 mph N/A   Overcast
3:15 PM 73.4 °F 57.7 °F 58% 30.10 in 10.0 mi ESE 12.7 mph 17.3 mph N/A   Overcast
3:35 PM 73.4 °F 58.1 °F 59% 30.09 in 10.0 mi ESE 11.5 mph - N/A   Overcast
3:55 PM 74.3 °F 57.7 °F 56% 30.08 in 10.0 mi ESE 10.4 mph - N/A   Overcast
4:15 PM 76.1 °F 57.2 °F 52% 30.08 in 10.0 mi ESE 13.8 mph 19.6 mph N/A   Overcast
4:35 PM 74.8 °F 57.2 °F 54% 30.07 in 10.0 mi ESE 12.7 mph 20.7 mph N/A   Overcast
4:55 PM 74.8 °F 57.2 °F 54% 30.07 in 10.0 mi SE 10.4 mph 17.3 mph N/A   Overcast
5:15 PM 76.1 °F 56.8 °F 51% 30.07 in 10.0 mi SE 11.5 mph 17.3 mph N/A   Overcast
5:35 PM 75.2 °F 56.5 °F 52% 30.07 in 10.0 mi SE 11.5 mph 19.6 mph N/A   Overcast
5:55 PM 75.4 °F 56.3 °F 51% 30.07 in 10.0 mi ESE 15.0 mph 23.0 mph N/A   Overcast
6:15 PM 75.0 °F 56.3 °F 52% 30.07 in 10.0 mi SE 13.8 mph 21.9 mph N/A   Overcast
6:35 PM 74.7 °F 56.1 °F 52% 30.07 in 10.0 mi SSE 13.8 mph 24.2 mph N/A   Overcast
6:55 PM 74.5 °F 55.9 °F 52% 30.07 in 10.0 mi SE 11.5 mph 20.7 mph N/A   Overcast
7:15 PM 74.3 °F 55.9 °F 53% 30.08 in 10.0 mi SE 13.8 mph 21.9 mph N/A   Overcast
7:35 PM 73.8 °F 55.4 °F 53% 30.08 in 10.0 mi SE 16.1 mph 24.2 mph N/A   Overcast
7:55 PM 73.4 °F 55.4 °F 53% 30.09 in 10.0 mi SE 15.0 mph 23.0 mph N/A   Overcast
8:15 PM 72.5 °F 55.2 °F 54% 30.09 in 10.0 mi SE 13.8 mph 19.6 mph N/A   Overcast
8:35 PM 72.5 °F 51.8 °F 48% 30.10 in 10.0 mi SE 11.5 mph - N/A   Overcast
8:55 PM 72.0 °F 53.6 °F 52% 30.10 in 10.0 mi ESE 9.2 mph - N/A   Overcast
9:15 PM 71.6 °F 53.6 °F 53% 30.11 in 10.0 mi ESE 9.2 mph - N/A   Overcast
9:35 PM 70.9 °F 53.4 °F 54% 30.11 in 10.0 mi ESE 9.2 mph - N/A   Overcast
9:55 PM 70.2 °F 52.9 °F 54% 30.11 in 10.0 mi SE 9.2 mph 17.3 mph N/A   Mostly Cloudy
10:15 PM 69.8 °F 53.1 °F 55% 30.12 in 10.0 mi SE 10.4 mph 17.3 mph N/A   Mostly Cloudy
10:35 PM 69.4 °F 53.6 °F 57% 30.12 in 10.0 mi SE 10.4 mph - N/A   Overcast
10:55 PM 69.1 °F 54.3 °F 59% 30.12 in 10.0 mi SE 11.5 mph 17.3 mph N/A   Overcast
11:15 PM 68.5 °F 54.5 °F 61% 30.14 in 10.0 mi SE 5.8 mph - N/A   Mostly Cloudy
11:35 PM 68.9 °F 54.9 °F 61% 30.14 in 10.0 mi SE 8.1 mph 16.1 mph N/A   Overcast
11:55 PM 68.4 °F 55.2 °F 63% 30.14 in 10.0 mi SE 9.2 mph - N/A   Overcast